Location: Curupao
(10.4996°N, 66.6442°W)
Time: 22:06:18
(UTC+00:00)

Cosmos 2333 Rocket - Pass Details

Date: 23 May 2024
Orbit: 838 x 863 km, 70.8° (Epoch: 22 June)

Event Time Altitude Azimuth Distance (km) Brightness Sun altitude
Rises 07:46:51 0° 350° (N) 3,418 5.6 -31.1°
Reaches altitude 10° 07:49:20 10° 354° (N) 2,486 4.9 -30.6°
Maximum altitude 07:54:58 61° 73° (ENE) 971 2.6 -29.4°
Drops below altitude 10° 08:00:38 10° 153° (SSE) 2,495 4.6 -28.2°
Sets 08:03:07 0° 157° (SSE) 3,432 5.3 -27.6°
